Location: Byszew
(52.1813°N, 19.2693°E)
Time: 18:16:48
(UTC+00:00)

MOS 1 Rocket - Pass Details

Date: 03 March 2021
Orbit: 615 x 829 km, 97.4° (Epoch: 17 April)

Event Time Altitude Azimuth Distance (km) Brightness Sun altitude
Rises 16:51:40 0° 13° (NNE) 3,156 6.5 -4.7°
Reaches altitude 10° 16:53:54 10° 15° (NNE) 2,262 5.8 -5.0°
Maximum altitude 16:58:56 84° 103° (ESE) 784 3.5 -5.8°
Drops below altitude 10° 17:04:12 10° 193° (SSW) 2,371 6.2 -6.6°
Sets 17:06:35 0° 194° (SSW) 3,318 7.0 -7.0°
